Weather in Koban

Russia / Republic of North Ossetia — Alania     42°54′58″N   44°28′43″E
temp.,
°C
wind,
m/s
gust,
m/s
humid.,
%
clouds,
%
prec.,
mm/h
press.,
hPa
HPBL,
m
7 march, sun
sun700:00+4ssw3348100 0.0 101636
03:00+2n135598 0.0 101886
06:00−4nw349685 4.6 1022423
09:00−4n339492 6.0 1022380
12:00−3n3384100 1.2 1022559
15:00−2ne237098 1.9 1021823
18:00−3ene2374100 0.1 1022182
21:00−5se127490 0.1 1023129
8 march, mon
mon800:00−5ssw00700 0.0 102257
03:00−6sw12740 0.0 102273
06:00−6sw017310 0.0 102161
09:00−3nnw116815 0.0 1019350
12:000nne2264100 0.0 1017674
15:000nnw1262100 0.1 1016860
18:00−2nw1276100 0.1 1017170
21:00−3s118098 0.2 1019107
9 march, tue
tue900:00−4s117263 0.0 101831
03:00−5ssw117032 0.0 101833
06:00−5ssw117164 0.0 101841
09:00−2nne117068 0.0 1018404
12:00+1nne216626 0.0 1016743
15:00+2n115835 0.1 1016840
18:000wnw116571 0.1 1019199
21:00−3wsw128886 0.5 102289
10 march, wed
wed1000:00−4ssw118580 2.4 102380
03:00−4ssw229490 3.8 102482
06:00−5ese1295100 0.7 1025105
09:00−3ne3389100 1.1 1024451
12:00−2nne3384100 0.4 1022581
15:00−2nne2381100 1.0 1020618
18:00−3ene2387100 0.6 1020246
21:00−4ene2487100 0.8 1021224
11 march, thu
thu1100:00−5ene2389100 0.1 1019216
03:00−5ene2493100 0.3 1019330
06:00−6ene2491100 0.4 1018329
09:00−5ne3489100 0.9 1017482
12:00−5ne4586100 0.9 1015627
15:00−6ne4691100 2.7 1014610
18:00−9ne3493100 1.9 1016417
21:00−10ne2393100 2.6 1019338